Location: Villingen
(48.0639°N, 8.4609°E)
Time: 19:52:11
(UTC+02:00)

ISS - Pass Details

Date: 28 March 2017
Orbit: 399 x 409 km, 51.6° (Epoch: 29 March)

Event Time Altitude Azimuth Distance (km) Brightness Sun altitude
Rises 22:32:01 0° 252° (WSW) 2,311 0.5 -25.5°
Reaches altitude 10° 22:34:05 10° 254° (WSW) 1,455 -0.6 -25.8°
Enters shadow 22:34:37 14° 255° (WSW) 1,237 -1.0 -25.8°
